Location: Chiroubles
(46.1812°N, 4.6660°E)
Time: 11:00:49
(UTC+00:00)

Transit 2A - Visible Passes

Search period start: 20 June 2021 00:00
Search period end: 30 June 2021 00:00
Orbit: 600 x 958 km, 66.7° (Epoch: 19 June)

Date Brightness Start Highest point End Pass type
(mag) Time Alt. Az. Time Alt. Az. Time Alt. Az.
20 Jun 5.9 00:42:35 10° NNW 00:47:32 86° NE 00:51:26 19° SE visible
20 Jun 7.7 02:27:21 10° WNW 02:30:10 15° WSW 02:31:50 13° SW visible
20 Jun 8.5 22:26:37 10° N 22:29:16 14° NNE 22:32:02 10° ENE visible
21 Jun 6.3 00:08:26 10° NNW 00:13:19 62° NE 00:17:09 19° SE visible
21 Jun 7.3 01:52:21 10° WNW 01:56:10 22° WSW 01:57:34 19° SW visible
21 Jun 8.6 21:53:07 10° N 21:54:43 11° NNE 21:56:22 10° NE visible
21 Jun 6.9 23:34:21 10° NNW 23:39:04 45° NE 23:43:02 16° ESE visible
22 Jun 6.9 01:17:42 10° NW 01:22:07 31° WSW 01:23:29 27° SW visible
22 Jun 7.3 23:00:20 10° NNW 23:04:46 33° NE 23:09:04 12° ESE visible
23 Jun 6.4 00:43:15 10° NW 00:48:02 44° WSW 00:49:30 35° SSW visible
23 Jun 7.7 22:26:21 10° NNW 22:30:24 25° NE 22:34:45 10° E visible
24 Jun 6.0 00:08:57 10° NW 00:13:54 63° WSW 00:15:38 41° S visible
24 Jun 8.0 21:52:26 10° N 21:55:59 20° NE 21:59:45 10° E visible
24 Jun 5.9 23:34:43 10° NNW 23:39:44 88° SW 23:41:51 38° SSE visible
25 Jun 7.9 01:19:41 10° WNW 01:22:18 14° WSW 01:22:18 14° WSW visible
25 Jun 8.3 21:18:37 10° N 21:21:30 15° NE 21:24:32 10° ENE visible
25 Jun 6.2 23:00:33 10° NNW 23:05:31 66° NE 23:08:08 30° SE visible
26 Jun 7.5 00:44:35 10° WNW 00:48:19 20° WSW 00:48:36 20° WSW visible
26 Jun 8.4 20:45:00 10° N 20:46:58 12° NNE 20:49:00 10° NE visible
26 Jun 6.7 22:26:28 10° NNW 22:31:16 48° NE 22:34:29 22° ESE visible
27 Jun 7.0 00:09:54 10° NW 00:14:17 29° WSW 00:14:56 28° SW visible
27 Jun 7.1 21:52:24 10° NNW 21:56:58 35° NE 22:00:52 15° ESE visible
27 Jun 6.6 23:35:26 10° NW 23:40:12 41° WSW 23:41:21 36° SW visible
28 Jun 7.5 21:18:25 10° NNW 21:22:37 27° NE 21:27:09 10° E visible
28 Jun 6.2 23:01:05 10° NW 23:06:04 59° WSW 23:07:48 40° S visible
29 Jun 7.8 20:44:29 10° N 20:48:12 21° NE 20:52:11 10° E visible
29 Jun 5.9 22:26:50 10° NW 22:31:55 83° WSW 22:34:18 35° SSE visible
